Location: B�di�
(14.6834°N, 3.1047°W)
Time: 04:08:24
(UTC+00:00)

GPS 2-12 Rocket1 - Pass Details

Date: 24 January 2020
Orbit: 586 x 652 km, 20.0° (Epoch: 18 February)

Event Time Altitude Azimuth Distance (km) Brightness Sun altitude
Rises 20:00:10 0° 274° (W) 2,949 7.7 -27.0°
Reaches altitude 10° 20:02:44 10° 264° (W) 2,037 6.7 -27.6°
Maximum altitude 20:07:02 33° 200° (SSW) 1,083 4.5 -28.6°
Enters shadow 20:07:14 33° 195° (SSW) 1,085 4.5 -28.6°
